Location: Tucson
(32.2217°N, 110.9265°W)
Time: 04:20:05
(UTC-07:00)

Oscar 11 - Pass Details

Date: 03 December 2021
Orbit: 611 x 625 km, 97.6° (Epoch: 19 January)

Event Time Altitude Azimuth Distance (km) Brightness Sun altitude
Rises 18:14:26 0° 211° (SSW) 2,886 11.4 -11.8°
Reaches altitude 10° 18:17:48 10° 240° (WSW) 1,988 11.1 -12.4°
Maximum altitude 18:19:45 13° 267° (W) 1,810 10.7 -12.8°
Drops below altitude 10° 18:21:43 10° 294° (WNW) 1,996 10.4 -13.2°
Sets 18:25:07 0° 323° (NW) 2,910 10.8 -13.9°
